Hourly Data Report for May 31, 2012

All times are specified in Local Standard Time (LST). Add 1 hour to adjust for Daylight Saving Time where and when it is observed.

LONDON A
ONTARIO

43°01'59.000" N
81°09'04.000" W
278.00 m
6144473
71623
YXU

Download Data

Hourly Data (May 2012)
Hourly Data Report for May 31, 2012
Temp Definition
°C
Dew Point Temp Definition
°C
Rel Hum Definition
%
Wind Dir Definition
10's deg

Wind Spd Definition
km/h
Visibility Definition
km
Stn Press Definition
kPa
Hmdx Definition


Wind Chill Definition


Weather Definition


TIME
00:00 9.8 6.2 78 36 13 10.0 97.97     LegendNANA
01:00 8.1 4.9 80 35 12 10.0 97.95     Clear
02:00 7.4 5.1 85 35 17 10.0 98.02     LegendNANA
03:00 6.7 5.2 90 34 13 10.0 98.08     LegendNANA
04:00 6.7 5.2 90 33 14 10.0 98.11     Clear
05:00 6.4 5.2 92 34 13 10.0 98.15     LegendNANA
06:00 7.8 6.0 88 35 17 10.0 98.23     LegendNANA
07:00 10.0 6.9 81 33 13 10.0 98.24     Mostly Cloudy
08:00 11.9 7.5 74 34 14 10.0 98.28     LegendNANA
09:00 13.4 7.5 67 32 10 10.0 98.28     LegendNANA
10:00 14.4 8.0 65 34 18 10.0 98.28     Cloudy
11:00 14.5 6.4 58 1 12 10.0 98.29     LegendNANA
12:00 17.2 7.1 51 34 14 10.0 98.24     LegendNANA
13:00 17.2 6.8 50 36 12 10.0 98.23     Cloudy
14:00 18.3 5.0 41 7 9 10.0 98.16     LegendNANA
15:00 19.0 6.3 43 32 10 10.0 98.12     LegendNANA
16:00 17.7 5.7 45 2 7 10.0 98.07     Mostly Cloudy
17:00 18.4 6.1 44 2 6 10.0 98.03     LegendNANA
18:00 17.7 5.7 45 1 7 10.0 98.03     LegendNANA
19:00 16.5 8.0 57 17 14 10.0 98.05     Cloudy
20:00 15.1 8.4 64 14 15 10.0 98.10     LegendNANA
21:00 14.6 8.8 68 10 8 10.0 98.11     LegendNANA
22:00 14.7 8.3 65 7 15 10.0 98.11     Cloudy
23:00 14.5 5.6 55 7 26 10.0 98.07     Rain Showers

Notes on Data Quality.

Legend

  • E = Estimated
  • M = Missing
  • NA = Not Available
Date modified: